Location: New Frontier Mobile Home Park
(32.8448°N, 116.9675°W)
Time: 22:21:37
(UTC+00:00)

Cosmos 44 - Pass Details

Date: 14 July 2020
Orbit: 587 x 775 km, 65.1° (Epoch: 05 August)

Event Time Altitude Azimuth Distance (km) Brightness Sun altitude
Rises 04:19:41 0° 201° (SSW) 2,801 6.2 -15.3°
Reaches altitude 10° 04:21:55 10° 199° (SSW) 1,900 5.4 -15.7°
Maximum altitude 04:26:08 70° 116° (ESE) 628 2.8 -16.4°
Drops below altitude 10° 04:30:27 10° 33° (NNE) 1,936 5.7 -17.1°
Sets 04:32:44 0° 31° (NNE) 2,860 6.6 -17.4°
